Location: New Frontier Mobile Home Park
(32.8448°N, 116.9675°W)
Time: 23:07:43
(UTC+00:00)

SPOT 1/Viking Rocket - Pass Details

Date: 14 July 2020
Orbit: 778 x 793 km, 98.5° (Epoch: 05 August)

Event Time Altitude Azimuth Distance (km) Brightness Sun altitude
Exits shadow 05:07:05 55° 132° (SE) 938 3.5 -22.6°
Maximum altitude 05:08:05 69° 75° (ENE) 835 3.5 -22.7°
Drops below altitude 10° 05:13:13 10° 353° (N) 2,346 6.8 -23.4°
Sets 05:15:34 0° 351° (N) 3,281 7.7 -23.7°
